Weather History for Galliano, LA

Change the Weather History Date:

Monday, November 7, 2011

  Actual Average (KAXO) Record (KAXO)
Temperature  
Mean Temperature 74 °F -  
Max Temperature 80 °F 68 °F 77 °F (2000)
Min Temperature 68 °F 64 °F 55 °F (1997)
Cooling Degree Days 9    
Growing Degree Days 24 (Base 50)    
Moisture  
Dew Point 66 °F    
Average Humidity 79    
Maximum Humidity 88    
Minimum Humidity 61    
Precipitation  
Precipitation 0.00 in - - ()
Sea Level Pressure  
Sea Level Pressure 30.15 in    
Wind  
Wind Speed 9 mph (ENE)    
Max Wind Speed 15 mph    
Max Gust Speed 24 mph    
Visibility 10 miles    
Events      
Averages and records for this station are not official NWS values.
T = Trace of Precipitation, MM = Missing Value Source: NWS Daily Summary

Daily Weather History Graph

Daily Weather History Graph

Search for Another Location

Airport:

Trip Planner

Search our weather history database for the weather conditions in past years. The results will help you decide how hot, cold, wet, or windy it might be!

Date:

Astronomy

Nov. 07, 2011 Rise Set
Actual Time 6:18 AM CST 5:10 PM CST
Civil Twilight 5:53 AM CST 5:35 PM CST
Nautical Twilight 5:25 AM CST 6:03 PM CST
Astronomical Twilight 4:57 AM CST 6:31 PM CST
Moon 3:13 PM CST (11/7) 3:31 AM CST (11/7)
Length of Visible Light 11h 41m
Length of Day
10h 51m
Waxing Gibbous, 92% of the Moon is Illuminated
Nov 7
Waxing Gibbous
Nov 10
Full
Nov 18
Last Quarter
Nov 25
New
Dec 2
First Quarter

Hourly Weather History & Observations

Time (CST) Temp. Heat Index Dew Point Humidity Pressure Visibility Wind Dir Wind Speed Gust Speed Precip Events Conditions
12:15 AM 69.8 °F - 66.2 °F 88% 30.18 in 10.0 mi ENE 6.9 mph - N/A   Overcast
12:35 AM 69.8 °F - 64.4 °F 83% 30.18 in 10.0 mi ENE 5.8 mph - N/A   Overcast
12:55 AM 69.8 °F - 64.4 °F 83% 30.17 in 10.0 mi ENE 8.1 mph - N/A   Overcast
1:15 AM 69.8 °F - 64.4 °F 83% 30.17 in 10.0 mi ENE 8.1 mph - N/A   Overcast
1:35 AM 69.8 °F - 64.4 °F 83% 30.16 in 10.0 mi ENE 6.9 mph - N/A   Overcast
1:55 AM 69.8 °F - 64.4 °F 83% 30.16 in 10.0 mi ENE 6.9 mph - N/A   Overcast
2:15 AM 69.8 °F - 64.4 °F 83% 30.16 in 10.0 mi NE 5.8 mph - N/A   Overcast
2:35 AM 69.8 °F - 64.4 °F 83% 30.15 in 10.0 mi ENE 9.2 mph - N/A   Overcast
2:55 AM 69.8 °F - 64.4 °F 83% 30.15 in 10.0 mi ENE 8.1 mph - N/A   Overcast
3:15 AM 69.8 °F - 64.4 °F 83% 30.15 in 10.0 mi NE 8.1 mph - N/A   Overcast
3:35 AM 69.8 °F - 64.4 °F 83% 30.14 in 10.0 mi NE 6.9 mph - N/A   Overcast
3:55 AM 69.8 °F - 64.4 °F 83% 30.15 in 10.0 mi ENE 5.8 mph - N/A   Overcast
4:15 AM 68.0 °F - 64.4 °F 88% 30.15 in 10.0 mi ENE 6.9 mph - N/A   Overcast
4:35 AM 68.0 °F - 64.4 °F 88% 30.15 in 10.0 mi NE 5.8 mph - N/A   Overcast
4:55 AM 68.0 °F - 64.4 °F 88% 30.15 in 10.0 mi ENE 6.9 mph - N/A   Overcast
5:15 AM 69.8 °F - 64.4 °F 83% 30.16 in 10.0 mi ENE 5.8 mph - N/A   Overcast
5:35 AM 68.0 °F - 64.4 °F 88% 30.16 in 10.0 mi ENE 6.9 mph - N/A   Overcast
5:55 AM 68.0 °F - 64.4 °F 88% 30.16 in 10.0 mi NE 5.8 mph - N/A   Overcast
6:15 AM 68.0 °F - 64.4 °F 88% 30.16 in 10.0 mi ENE 6.9 mph - N/A   Overcast
6:35 AM 68.0 °F - 64.4 °F 88% 30.16 in 10.0 mi ENE 8.1 mph - N/A   Overcast
7:15 AM 69.8 °F - 64.4 °F 83% 30.17 in 10.0 mi ENE 6.9 mph - N/A   Overcast
7:35 AM 69.8 °F - 64.4 °F 83% 30.18 in 10.0 mi ENE 5.8 mph - N/A   Overcast
7:55 AM 71.6 °F - 66.2 °F 83% 30.19 in 10.0 mi ENE 6.9 mph - N/A   Overcast
8:15 AM 71.6 °F - 66.2 °F 83% 30.19 in 10.0 mi ENE 9.2 mph 16.1 mph N/A   Overcast
9:15 AM 75.2 °F - 68.0 °F 78% 30.20 in 10.0 mi ENE 11.5 mph 19.6 mph N/A   Overcast
9:35 AM 77.0 °F - 68.0 °F 74% 30.20 in 10.0 mi ENE 11.5 mph 19.6 mph N/A   Overcast
10:15 AM 78.8 °F - 68.0 °F 69% 30.20 in 10.0 mi ENE 15.0 mph 24.2 mph N/A   Clear
10:55 AM 78.8 °F - 68.0 °F 69% 30.20 in 10.0 mi East 15.0 mph 21.9 mph N/A   Clear
11:15 AM 78.8 °F - 66.2 °F 65% 30.19 in 10.0 mi East 13.8 mph 21.9 mph N/A   Clear
11:35 AM 78.8 °F - 66.2 °F 65% 30.18 in 10.0 mi East 11.5 mph 21.9 mph N/A   Clear
11:55 AM 78.8 °F - 66.2 °F 65% 30.17 in 10.0 mi East 10.4 mph 20.7 mph N/A   Clear
12:15 PM 80.6 °F 82.7 °F 66.2 °F 61% 30.16 in 10.0 mi ENE 15.0 mph 21.9 mph N/A   Clear
12:35 PM 78.8 °F - 66.2 °F 65% 30.15 in 10.0 mi ENE 13.8 mph 19.6 mph N/A   Clear
12:55 PM 78.8 °F - 66.2 °F 65% 30.14 in 10.0 mi East 15.0 mph 20.7 mph N/A   Clear
1:15 PM 78.8 °F - 66.2 °F 65% 30.13 in 10.0 mi ENE 11.5 mph 19.6 mph N/A   Clear
1:35 PM 78.8 °F - 66.2 °F 65% 30.13 in 10.0 mi East 15.0 mph 19.6 mph N/A   Clear
1:55 PM 78.8 °F - 66.2 °F 65% 30.13 in 10.0 mi ENE 12.7 mph 21.9 mph N/A   Clear
2:15 PM 78.8 °F - 66.2 °F 65% 30.12 in 10.0 mi ENE 11.5 mph 18.4 mph N/A   Clear
2:35 PM 78.8 °F - 66.2 °F 65% 30.12 in 10.0 mi ENE 13.8 mph 18.4 mph N/A   Clear
2:55 PM 77.0 °F - 66.2 °F 69% 30.11 in 10.0 mi ENE 11.5 mph 18.4 mph N/A   Clear
3:15 PM 77.0 °F - 66.2 °F 69% 30.11 in 10.0 mi ENE 15.0 mph 21.9 mph N/A   Clear
3:35 PM 77.0 °F - 66.2 °F 69% 30.11 in 10.0 mi ENE 12.7 mph 18.4 mph N/A   Clear
3:55 PM 77.0 °F - 66.2 °F 69% 30.11 in 10.0 mi ENE 10.4 mph 18.4 mph N/A   Clear
4:15 PM 75.2 °F - 66.2 °F 73% 30.12 in 10.0 mi ENE 12.7 mph 16.1 mph N/A   Clear
5:15 PM 71.6 °F - 66.2 °F 83% 30.12 in 10.0 mi ENE 9.2 mph 17.3 mph N/A   Clear
5:35 PM 71.6 °F - 66.2 °F 83% 30.12 in 10.0 mi ENE 11.5 mph 16.1 mph N/A   Clear
6:15 PM 69.8 °F - 66.2 °F 88% 30.13 in 10.0 mi ENE 8.1 mph - N/A   Clear
6:35 PM 69.8 °F - 66.2 °F 88% 30.13 in 10.0 mi NE 9.2 mph - N/A   Clear
6:55 PM 69.8 °F - 66.2 °F 88% 30.14 in 10.0 mi ENE 8.1 mph - N/A   Clear
7:15 PM 69.8 °F - 66.2 °F 88% 30.14 in 10.0 mi ENE 4.6 mph - N/A   Clear
7:35 PM 69.8 °F - 66.2 °F 88% 30.15 in 10.0 mi ENE 6.9 mph - N/A   Clear
7:55 PM 69.8 °F - 66.2 °F 88% 30.15 in 10.0 mi ENE 6.9 mph - N/A   Clear
8:15 PM 69.8 °F - 66.2 °F 88% 30.15 in 10.0 mi ENE 6.9 mph - N/A   Clear
8:35 PM 69.8 °F - 66.2 °F 88% 30.14 in 10.0 mi ENE 6.9 mph - N/A   Clear
8:55 PM 69.8 °F - 66.2 °F 88% 30.13 in 10.0 mi ENE 8.1 mph - N/A   Clear
9:15 PM 69.8 °F - 66.2 °F 88% 30.12 in 10.0 mi ENE 9.2 mph - N/A   Clear
9:35 PM 69.8 °F - 66.2 °F 88% 30.12 in 10.0 mi ENE 6.9 mph - N/A   Clear
10:15 PM 69.8 °F - 68.0 °F 94% 30.11 in 10.0 mi ENE 5.8 mph - N/A   Scattered Clouds
10:35 PM 69.8 °F - 68.0 °F 94% 30.10 in 10.0 mi ENE 6.9 mph - N/A   Mostly Cloudy
10:55 PM 69.8 °F - 68.0 °F 94% 30.08 in 10.0 mi East 8.1 mph - N/A   Scattered Clouds
11:15 PM 71.6 °F - 68.0 °F 88% 30.08 in 10.0 mi East 8.1 mph - N/A   Scattered Clouds
11:35 PM 71.6 °F - 68.0 °F 88% 30.08 in 10.0 mi East 9.2 mph - N/A   Mostly Cloudy
11:55 PM 71.6 °F - 66.2 °F 83% 30.07 in 10.0 mi East 9.2 mph - N/A   Mostly Cloudy